This is the latest recevied weather packets stored in our database for station/object K1BWE-1. If no packets are shown the sender has not sent any weather packets the latest 10 day(s).
| Time | Temp. | Humidity | Pressure | Rain* | Wind** | Luminosity | Snow |
|---|---|---|---|---|---|---|---|
| 1778063830 | 10° C | 71% | 1016.2 hPa | 0 mm | - | 0 W/m² | - |
| 1778063527 | 10° C | 73% | 1016.3 hPa | 0 mm | - | 0 W/m² | - |
| 1778063225 | 10.56° C | 72% | 1016 hPa | 0 mm | - | 0 W/m² | - |
| 1778062923 | 10.56° C | 72% | 1016.2 hPa | 0 mm | - | 0 W/m² | - |
| 1778062619 | 10.56° C | 72% | 1015.9 hPa | 0 mm | - | 0 W/m² | - |
| 1778062315 | 10° C | 74% | 1016.1 hPa | 0 mm | - | 0 W/m² | - |
| 1778062014 | 10.56° C | 73% | 1015.9 hPa | 0 mm | - | 0 W/m² | - |
| 1778061712 | 10.56° C | 71% | 1015.9 hPa | 0 mm | - | 0 W/m² | - |
| 1778061410 | 10.56° C | 73% | 1016 hPa | 0 mm | - | 0 W/m² | - |
| 1778061106 | 10.56° C | 73% | 1016 hPa | 0 mm | - | 0 W/m² | - |
| 1778060804 | 10.56° C | 74% | 1016 hPa | 0 mm | - | 0 W/m² | - |
| 1778060502 | 10.56° C | 73% | 1015.9 hPa | 0 mm | - | 0 W/m² | - |
| 1778060200 | 10.56° C | 72% | 1016 hPa | 0 mm | - | 0 W/m² | - |
| 1778059897 | 10.56° C | 72% | 1016 hPa | 0 mm | - | 0 W/m² | - |
| 1778059595 | 10.56° C | 72% | 1015.9 hPa | 0 mm | - | 0 W/m² | - |
| 1778059291 | 10.56° C | 73% | 1015.8 hPa | 0 mm | - | 0 W/m² | - |
| 1778058989 | 10.56° C | 73% | 1016 hPa | 0 mm | - | 0 W/m² | - |
| 1778058687 | 11.11° C | 73% | 1015.9 hPa | 0 mm | - | 0 W/m² | - |
| 1778058385 | 11.11° C | 72% | 1015.5 hPa | 0 mm | - | 0 W/m² | - |
| 1778058081 | 11.11° C | 74% | 1015.9 hPa | 0 mm | - | 0 W/m² | - |
| 1778057778 | 10.56° C | 71% | 1015.8 hPa | 0 mm | - | 0 W/m² | - |
| 1778057474 | 11.11° C | 72% | 1015.8 hPa | 0 mm | - | 0 W/m² | - |
| 1778057171 | 11.11° C | 73% | 1015.9 hPa | 0 mm | - | 0 W/m² | - |
| 1778056867 | 10.56° C | 78% | 1015.9 hPa | 0 mm | - | 0 W/m² | - |
| 1778056564 | 10.56° C | 79% | 1015.6 hPa | 0 mm | - | 0 W/m² | - |
* Rain latest hour (hover to see other rain measurements)
** Current wind speed in m/s (hover to see current wind gust speed)